| time (UTC) | temp F | wind direction | speed MPH | gust MPH | rain 1hr in | rain 24hr in | rain mn in | humidity % | barometer mb |
| 20260831112705 | 69 | 232 | 3.0 | 12.0 | 0.00 | 0.02 | 0.00 | 69 | 1007.9 |
| 20260831112512 | 70 | 250 | 4.0 | 13.0 | 0.00 | 0.00 | 0.00 | 68 | 1006.9 |
| 20260831112204 | 71 | 235 | 3.0 | 15.0 | 0.00 | 0.02 | 0.00 | 67 | 1007.8 |
| 20260831111705 | 72 | 216 | 4.0 | 12.0 | 0.00 | 0.02 | 0.00 | 65 | 1007.6 |
| 20260831111512 | 72 | 223 | 2.0 | 12.0 | 0.00 | 0.00 | 0.00 | 64 | 1006.6 |
| 20260831110512 | 72 | 199 | 2.0 | 10.0 | 0.00 | 0.00 | 0.00 | 64 | 1006.7 |
| 20260831110205 | 72 | 211 | 2.0 | 8.0 | 0.00 | 0.02 | 0.00 | 64 | 1007.6 |
| 20260831105704 | 72 | 213 | 3.0 | 16.0 | 0.00 | 0.02 | 0.00 | 63 | 1007.6 |
| 20260831105512 | 72 | 258 | 3.0 | 12.0 | 0.00 | 0.00 | 0.00 | 63 | 1006.6 |
| 20260831104704 | 72 | 215 | 4.0 | 13.0 | 0.00 | 0.02 | 0.00 | 64 | 1007.5 |
| 20260831104512 | 72 | 152 | 1.0 | 13.0 | 0.00 | 0.00 | 0.00 | 64 | 1006.7 |
| 20260831104205 | 72 | 218 | 3.0 | 13.0 | 0.00 | 0.02 | 0.00 | 65 | 1007.6 |
| 20260831103704 | 72 | 195 | 3.0 | 12.0 | 0.00 | 0.02 | 0.00 | 65 | 1007.6 |
| 20260831103511 | 72 | 223 | 2.0 | 12.0 | 0.00 | 0.00 | 0.00 | 66 | 1006.7 |
| 20260831103204 | 72 | 229 | 3.0 | 12.0 | 0.00 | 0.02 | 0.00 | 65 | 1007.7 |
| 20260831102704 | 72 | 223 | 1.0 | 6.0 | 0.00 | 0.02 | 0.00 | 65 | 1007.8 |
| 20260831102512 | 72 | 274 | 1.0 | 10.0 | 0.00 | 0.00 | 0.00 | 67 | 1006.8 |
| 20260831102205 | 72 | 211 | 2.0 | 8.0 | 0.00 | 0.02 | 0.00 | 67 | 1007.8 |
| 20260831101704 | 71 | 216 | 2.0 | 13.0 | 0.00 | 0.02 | 0.00 | 69 | 1007.8 |
| 20260831101512 | 71 | 235 | 4.0 | 13.0 | 0.00 | 0.00 | 0.00 | 69 | 1006.9 |
| 20260831101205 | 70 | 226 | 3.0 | 10.0 | 0.00 | 0.02 | 0.00 | 69 | 1007.9 |
| 20260831100704 | 70 | 230 | 3.0 | 10.0 | 0.00 | 0.02 | 0.00 | 69 | 1007.9 |
| 20260831100204 | 70 | 206 | 4.0 | 13.0 | 0.00 | 0.02 | 0.00 | 69 | 1007.9 |
| 20260831095512 | 71 | 227 | 4.0 | 15.0 | 0.00 | 0.00 | 0.00 | 67 | 1006.9 |
| 20260831095205 | 71 | 227 | 3.0 | 20.0 | 0.00 | 0.02 | 0.00 | 67 | 1007.8 |
| 20260831094704 | 70 | 212 | 2.0 | 7.0 | 0.00 | 0.02 | 0.00 | 68 | 1007.9 |
| 20260831094204 | 70 | 216 | 2.0 | 10.0 | 0.00 | 0.02 | 0.00 | 70 | 1007.9 |
| 20260831093704 | 69 | 188 | 1.0 | 10.0 | 0.00 | 0.02 | 0.00 | 69 | 1007.9 |
| 20260831093511 | 69 | 253 | 1.0 | 10.0 | 0.00 | 0.00 | 0.00 | 69 | 1006.9 |
| 20260831093204 | 70 | 222 | 2.0 | 10.0 | 0.00 | 0.02 | 0.00 | 69 | 1007.9 |
| 20260831092704 | 70 | 223 | 3.0 | 16.0 | 0.00 | 0.02 | 0.00 | 69 | 1008.0 |
| 20260831092204 | 70 | 200 | 2.0 | 12.0 | 0.00 | 0.02 | 0.00 | 70 | 1008.0 |
| 20260831091704 | 69 | 246 | 1.0 | 10.0 | 0.00 | 0.02 | 0.00 | 73 | 1008.0 |
| 20260831091511 | 69 | 234 | 1.0 | 9.0 | 0.00 | 0.00 | 0.00 | 72 | 1007.0 |
| 20260831090704 | 69 | 202 | 2.0 | 9.0 | 0.00 | 0.02 | 0.00 | 72 | 1007.9 |
| 20260831090204 | 69 | 217 | 2.0 | 12.0 | 0.00 | 0.02 | 0.00 | 72 | 1008.0 |
| 20260831085704 | 69 | 218 | 0.0 | 9.0 | 0.00 | 0.02 | 0.00 | 74 | 1008.0 |
| 20260831085512 | 69 | 199 | 1.0 | 9.0 | 0.00 | 0.00 | 0.00 | 74 | 1007.1 |
| 20260831085204 | 69 | 221 | 1.0 | 12.0 | 0.00 | 0.02 | 0.00 | 75 | 1008.0 |
| 20260831084704 | 68 | 223 | 3.0 | 12.0 | 0.00 | 0.02 | 0.00 | 74 | 1008.0 |
| 20260831084511 | 68 | 236 | 2.0 | 12.0 | 0.00 | 0.00 | 0.00 | 74 | 1007.1 |
| 20260831084204 | 68 | 216 | 3.0 | 12.0 | 0.00 | 0.02 | 0.00 | 74 | 1008.0 |
| 20260831083511 | 69 | 229 | 2.0 | 11.0 | 0.00 | 0.00 | 0.00 | 73 | 1007.1 |
| 20260831083204 | 69 | 195 | 1.0 | 9.0 | 0.00 | 0.02 | 0.00 | 75 | 1008.0 |
| 20260831082204 | 68 | 220 | 1.0 | 3.0 | 0.00 | 0.02 | 0.00 | 76 | 1008.1 |
| 20260831081704 | 68 | 209 | 3.0 | 10.0 | 0.00 | 0.02 | 0.00 | 75 | 1008.1 |
| 20260831081512 | 68 | 229 | 2.0 | 12.0 | 0.00 | 0.00 | 0.00 | 76 | 1007.2 |
| 20260831081204 | 68 | 215 | 3.0 | 12.0 | 0.00 | 0.02 | 0.00 | 76 | 1008.1 |
| 20260831080204 | 68 | 200 | 2.0 | 13.0 | 0.00 | 0.02 | 0.00 | 77 | 1008.1 |
| 20260831075704 | 68 | 216 | 1.0 | 10.0 | 0.00 | 0.02 | 0.00 | 77 | 1008.2 |
| 20260831075512 | 68 | 225 | 2.0 | 10.0 | 0.00 | 0.00 | 0.00 | 77 | 1007.3 |
| 20260831075204 | 68 | 200 | 1.0 | 7.0 | 0.00 | 0.02 | 0.00 | 77 | 1008.2 |
| 20260831074704 | 68 | 217 | 0.0 | 8.0 | 0.00 | 0.02 | 0.00 | 77 | 1008.1 |
| 20260831074511 | 67 | 191 | 2.0 | 12.0 | 0.00 | 0.00 | 0.00 | 77 | 1007.1 |
| 20260831074204 | 68 | 226 | 2.0 | 12.0 | 0.00 | 0.02 | 0.00 | 77 | 1008.1 |
| 20260831073704 | 68 | 199 | 1.0 | 7.0 | 0.00 | 0.02 | 0.00 | 77 | 1008.1 |
| 20260831073511 | 68 | 231 | 1.0 | 9.0 | 0.00 | 0.00 | 0.00 | 76 | 1007.1 |
| 20260831073204 | 68 | 224 | 1.0 | 9.0 | 0.00 | 0.02 | 0.00 | 76 | 1008.0 |
| 20260831072703 | 68 | 206 | 0.0 | 9.0 | 0.00 | 0.02 | 0.00 | 77 | 1008.0 |
| 20260831072511 | 68 | 197 | 1.0 | 9.0 | 0.00 | 0.00 | 0.00 | 76 | 1007.1 |
| 20260831072204 | 68 | 221 | 2.0 | 13.0 | 0.00 | 0.02 | 0.00 | 76 | 1008.1 |
| 20260831071704 | 68 | 221 | 1.0 | 8.0 | 0.00 | 0.02 | 0.00 | 76 | 1008.1 |
| 20260831071511 | 68 | 225 | 1.0 | 9.0 | 0.00 | 0.00 | 0.00 | 76 | 1007.2 |
| 20260831071204 | 68 | 212 | 1.0 | 9.0 | 0.00 | 0.02 | 0.00 | 76 | 1008.1 |
| 20260831070704 | 68 | 213 | 0.0 | 6.0 | 0.00 | 0.02 | 0.00 | 77 | 1008.1 |
| 20260831070511 | 68 | 210 | 1.0 | 9.0 | 0.00 | 0.00 | 0.00 | 77 | 1007.1 |
| 20260831070203 | 68 | 206 | 1.0 | 5.0 | 0.00 | 0.02 | 0.00 | 77 | 1008.0 |
| 20260831065704 | 67 | 197 | 0.0 | 2.0 | 0.00 | 0.02 | 0.00 | 77 | 1008.0 |
| 20260831065511 | 67 | 200 | 0.0 | 2.0 | 0.00 | 0.00 | 0.00 | 77 | 1007.0 |
| 20260831065204 | 67 | 217 | 0.0 | 2.0 | 0.00 | 0.02 | 0.00 | 78 | 1008.0 |
| 20260831064704 | 67 | 209 | 0.0 | 2.0 | 0.00 | 0.02 | 0.00 | 78 | 1008.0 |
| 20260831064511 | 67 | 195 | 0.0 | 2.0 | 0.00 | 0.00 | 0.00 | 79 | 1007.0 |
| 20260831064204 | 67 | 206 | 0.0 | 1.0 | 0.00 | 0.02 | 0.00 | 79 | 1007.9 |
| 20260831063511 | 66 | 246 | 0.0 | 3.0 | 0.00 | 0.00 | 0.00 | 79 | 1007.0 |
| 20260831063203 | 66 | 220 | 0.0 | 3.0 | 0.00 | 0.02 | 0.00 | 80 | 1007.8 |
| 20260831062704 | 66 | 205 | 1.0 | 7.0 | 0.00 | 0.02 | 0.00 | 79 | 1007.8 |
| 20260831062511 | 66 | 214 | 1.0 | 7.0 | 0.00 | 0.00 | 0.00 | 79 | 1006.9 |
| 20260831062204 | 66 | 198 | 0.0 | 3.0 | 0.00 | 0.02 | 0.00 | 79 | 1007.8 |
| 20260831061703 | 66 | 206 | 0.0 | 2.0 | 0.00 | 0.02 | 0.00 | 80 | 1007.8 |
| 20260831061511 | 66 | 219 | 0.0 | 2.0 | 0.00 | 0.00 | 0.00 | 80 | 1006.9 |
| 20260831061204 | 65 | 208 | 0.0 | 1.0 | 0.00 | 0.02 | 0.00 | 80 | 1007.8 |
| 20260831060703 | 65 | 151 | 0.0 | 1.0 | 0.00 | 0.02 | 0.00 | 81 | 1007.9 |
| 20260831055705 | 65 | 196 | 0.0 | 1.0 | 0.00 | 0.02 | 0.00 | 82 | 1007.8 |
| 20260831055511 | 65 | 170 | 0.0 | 1.0 | 0.00 | 0.00 | 0.00 | 82 | 1006.8 |
| 20260831054704 | 64 | 194 | 0.0 | 8.0 | 0.00 | 0.02 | 0.00 | 82 | 1007.9 |
| 20260831054511 | 64 | 167 | 0.0 | 8.0 | 0.00 | 0.00 | 0.00 | 83 | 1006.9 |
| 20260831054204 | 64 | 180 | 0.0 | 1.0 | 0.00 | 0.02 | 0.00 | 82 | 1007.8 |
| 20260831053704 | 64 | 198 | 0.0 | 0.0 | 0.00 | 0.02 | 0.00 | 82 | 1007.7 |
| 20260831053204 | 64 | 204 | 0.0 | 0.0 | 0.00 | 0.02 | 0.00 | 82 | 1007.6 |
| 20260831052704 | 64 | 187 | 0.0 | 0.0 | 0.00 | 0.02 | 0.00 | 82 | 1007.6 |
| 20260831052511 | 64 | 215 | 0.0 | 4.0 | 0.00 | 0.00 | 0.00 | 82 | 1006.6 |
| 20260831052204 | 64 | 192 | 0.0 | 3.0 | 0.00 | 0.02 | 0.00 | 82 | 1007.6 |
| 20260831051704 | 64 | 208 | 0.0 | 6.0 | 0.00 | 0.02 | 0.00 | 82 | 1007.5 |
| 20260831051511 | 64 | 231 | 1.0 | 7.0 | 0.00 | 0.00 | 0.00 | 82 | 1006.5 |
| 20260831051206 | 64 | 183 | 0.0 | 7.0 | 0.00 | 0.02 | 0.00 | 82 | 1007.5 |
| 20260831050706 | 64 | 200 | 0.0 | 2.0 | 0.00 | 0.02 | 0.00 | 82 | 1007.5 |
| 20260831050511 | 64 | 192 | 0.0 | 2.0 | 0.00 | 0.00 | 0.00 | 82 | 1006.6 |
| 20260831050205 | 64 | 202 | 0.0 | 0.0 | 0.00 | 0.02 | 0.00 | 82 | 1007.4 |
| 20260831045705 | 64 | 187 | 0.0 | 3.0 | 0.00 | 0.02 | 0.00 | 82 | 1007.4 |
| 20260831045511 | 64 | 194 | 0.0 | 4.0 | 0.00 | 0.00 | 0.00 | 82 | 1006.5 |
| 20260831045206 | 64 | 204 | 0.0 | 0.0 | 0.00 | 0.02 | 0.00 | 82 | 1007.3 |
| 20260831044705 | 64 | 204 | 0.0 | 3.0 | 0.00 | 0.02 | 0.00 | 82 | 1007.5 |
| 20260831044205 | 63 | 196 | 0.0 | 1.0 | 0.00 | 0.02 | 0.00 | 82 | 1007.5 |
| 20260831043706 | 63 | 177 | 0.0 | 0.0 | 0.00 | 0.02 | 0.00 | 83 | 1007.5 |
| 20260831043511 | 63 | 221 | 0.0 | 0.0 | 0.00 | 0.00 | 0.00 | 83 | 1006.6 |
| 20260831043206 | 63 | 193 | 0.0 | 0.0 | 0.00 | 0.02 | 0.00 | 83 | 1007.4 |
| 20260831042705 | 63 | 194 | 0.0 | 0.0 | 0.00 | 0.02 | 0.00 | 83 | 1007.5 |
| 20260831042206 | 63 | 200 | 0.0 | 1.0 | 0.00 | 0.02 | 0.00 | 83 | 1007.5 |
| 20260831041706 | 63 | 194 | 0.0 | 3.0 | 0.00 | 0.02 | 0.00 | 84 | 1007.5 |
| 20260831041206 | 63 | 190 | 0.0 | 0.0 | 0.00 | 0.02 | 0.00 | 84 | 1007.6 |
| 20260831040705 | 63 | 205 | 0.0 | 0.0 | 0.00 | 0.02 | 0.00 | 85 | 1007.6 |
| 20260831040511 | 63 | 219 | 0.0 | 0.0 | 0.00 | 0.00 | 0.00 | 85 | 1006.7 |
| 20260831035206 | 62 | 202 | 0.0 | 0.0 | 0.00 | 0.02 | 0.00 | 87 | 1007.5 |
| 20260831034706 | 61 | 182 | 0.0 | 0.0 | 0.00 | 0.02 | 0.00 | 88 | 1007.5 |
| 20260831034511 | 61 | 204 | 0.0 | 0.0 | 0.00 | 0.00 | 0.00 | 88 | 1006.6 |
| 20260831034205 | 61 | 151 | 0.0 | 0.0 | 0.00 | 0.02 | 0.00 | 89 | 1007.6 |
| 20260831033705 | 61 | 178 | 0.0 | 0.0 | 0.00 | 0.02 | 0.00 | 89 | 1007.8 |
| 20260831033206 | 61 | 189 | 0.0 | 3.0 | 0.00 | 0.02 | 0.00 | 90 | 1007.8 |
| 20260831032512 | 60 | 180 | 0.0 | 0.0 | 0.00 | 0.00 | 0.00 | 90 | 1006.8 |
| 20260831032205 | 60 | 165 | 0.0 | 0.0 | 0.00 | 0.02 | 0.00 | 90 | 1007.8 |
| 20260831031705 | 60 | 148 | 0.0 | 0.0 | 0.00 | 0.02 | 0.00 | 90 | 1007.8 |
| 20260831031511 | 60 | 148 | 0.0 | 0.0 | 0.00 | 0.00 | 0.00 | 90 | 1006.9 |
| 20260831031205 | 60 | 148 | 0.0 | 0.0 | 0.00 | 0.02 | 0.00 | 90 | 1007.9 |
| 20260831030706 | 60 | 148 | 0.0 | 0.0 | 0.00 | 0.02 | 0.00 | 89 | 1007.9 |
| 20260831030511 | 60 | 148 | 0.0 | 0.0 | 0.00 | 0.00 | 0.00 | 89 | 1006.9 |
| 20260831030205 | 60 | 148 | 0.0 | 0.0 | 0.00 | 0.02 | 0.00 | 89 | 1007.9 |
| 20260831025706 | 60 | 148 | 0.0 | 0.0 | 0.00 | 0.02 | 0.00 | 89 | 1007.9 |
| 20260831025511 | 60 | 148 | 0.0 | 0.0 | 0.00 | 0.00 | 0.00 | 88 | 1007.0 |
| 20260831025205 | 60 | 148 | 0.0 | 0.0 | 0.00 | 0.02 | 0.00 | 89 | 1007.9 |
| 20260831024705 | 60 | 148 | 0.0 | 0.0 | 0.00 | 0.02 | 0.00 | 88 | 1007.8 |
| 20260831024511 | 60 | 148 | 0.0 | 0.0 | 0.00 | 0.00 | 0.00 | 89 | 1006.9 |
| 20260831024206 | 61 | 148 | 0.0 | 0.0 | 0.00 | 0.02 | 0.00 | 88 | 1007.8 |
| 20260831023706 | 61 | 148 | 0.0 | 0.0 | 0.00 | 0.02 | 0.00 | 88 | 1007.8 |
| 20260831023512 | 61 | 148 | 0.0 | 0.0 | 0.00 | 0.00 | 0.00 | 88 | 1006.8 |
| 20260831023205 | 61 | 148 | 0.0 | 0.0 | 0.00 | 0.02 | 0.00 | 88 | 1007.8 |
| 20260831022705 | 61 | 148 | 0.0 | 0.0 | 0.00 | 0.02 | 0.00 | 88 | 1007.7 |
| 20260831022511 | 61 | 148 | 0.0 | 0.0 | 0.00 | 0.00 | 0.00 | 88 | 1006.8 |
| 20260831021706 | 61 | 148 | 0.0 | 0.0 | 0.00 | 0.02 | 0.00 | 88 | 1007.8 |
| 20260831020511 | 61 | 148 | 0.0 | 0.0 | 0.00 | 0.00 | 0.00 | 89 | 1007.1 |
| 20260831020205 | 61 | 148 | 0.0 | 0.0 | 0.00 | 0.02 | 0.00 | 89 | 1008.1 |
| 20260831015706 | 61 | 148 | 0.0 | 0.0 | 0.00 | 0.02 | 0.00 | 89 | 1008.2 |
| 20260831015206 | 61 | 148 | 0.0 | 0.0 | 0.00 | 0.02 | 0.00 | 90 | 1008.3 |
| 20260831014705 | 61 | 148 | 0.0 | 0.0 | 0.00 | 0.02 | 0.00 | 90 | 1008.3 |
| 20260831014511 | 61 | 148 | 0.0 | 0.0 | 0.00 | 0.00 | 0.00 | 90 | 1007.4 |
| 20260831014206 | 61 | 148 | 0.0 | 0.0 | 0.00 | 0.02 | 0.00 | 90 | 1008.3 |
| 20260831013706 | 61 | 148 | 0.0 | 0.0 | 0.00 | 0.02 | 0.00 | 90 | 1008.4 |
| 20260831013511 | 61 | 148 | 0.0 | 0.0 | 0.00 | 0.00 | 0.00 | 90 | 1007.4 |
| 20260831012705 | 61 | 148 | 0.0 | 0.0 | 0.00 | 0.02 | 0.00 | 90 | 1008.5 |
| 20260831012512 | 61 | 148 | 0.0 | 0.0 | 0.00 | 0.00 | 0.00 | 90 | 1007.6 |
| 20260831012205 | 61 | 157 | 0.0 | 0.0 | 0.00 | 0.02 | 0.00 | 90 | 1008.6 |
| 20260831011511 | 61 | 165 | 0.0 | 0.0 | 0.00 | 0.00 | 0.00 | 91 | 1007.8 |
| 20260831011205 | 61 | 171 | 0.0 | 0.0 | 0.00 | 0.02 | 0.00 | 91 | 1008.7 |
| 20260831010705 | 61 | 117 | 0.0 | 0.0 | 0.00 | 0.02 | 0.00 | 91 | 1008.8 |
| 20260831010511 | 61 | 98 | 0.0 | 0.0 | 0.00 | 0.00 | 0.00 | 92 | 1007.9 |
| 20260831010206 | 61 | 98 | 0.0 | 0.0 | 0.00 | 0.02 | 0.00 | 92 | 1008.8 |
| 20260831005706 | 61 | 98 | 0.0 | 0.0 | 0.00 | 0.02 | 0.00 | 92 | 1008.7 |
| 20260831005511 | 61 | 98 | 0.0 | 0.0 | 0.00 | 0.00 | 0.00 | 92 | 1007.8 |
| 20260831005206 | 61 | 100 | 0.0 | 0.0 | 0.00 | 0.02 | 0.00 | 92 | 1008.8 |
| 20260831004705 | 61 | 100 | 0.0 | 0.0 | 0.00 | 0.02 | 0.00 | 92 | 1008.8 |
| 20260831004511 | 61 | 100 | 0.0 | 0.0 | 0.00 | 0.00 | 0.00 | 92 | 1007.8 |
| 20260831004205 | 61 | 100 | 0.0 | 0.0 | 0.00 | 0.02 | 0.00 | 92 | 1008.9 |
| 20260831003705 | 61 | 100 | 0.0 | 0.0 | 0.00 | 0.02 | 0.00 | 92 | 1008.9 |
| 20260831003206 | 61 | 100 | 0.0 | 0.0 | 0.00 | 0.02 | 0.00 | 92 | 1008.8 |
| 20260831002705 | 61 | 100 | 0.0 | 0.0 | 0.00 | 0.02 | 0.00 | 92 | 1008.8 |
| 20260831002512 | 61 | 100 | 0.0 | 0.0 | 0.00 | 0.00 | 0.00 | 92 | 1007.9 |
| 20260831002205 | 61 | 100 | 0.0 | 0.0 | 0.00 | 0.02 | 0.00 | 92 | 1008.9 |
| 20260831001706 | 61 | 100 | 0.0 | 0.0 | 0.00 | 0.02 | 0.00 | 92 | 1008.9 |
| 20260831001511 | 60 | 100 | 0.0 | 0.0 | 0.00 | 0.00 | 0.00 | 92 | 1008.0 |
| 20260831001205 | 60 | 100 | 0.0 | 0.0 | 0.00 | 0.02 | 0.00 | 92 | 1008.9 |
| 20260831000705 | 60 | 100 | 0.0 | 0.0 | 0.00 | 0.02 | 0.00 | 92 | 1009.0 |
| 20260831000205 | 60 | 100 | 0.0 | 0.0 | 0.00 | 0.02 | 0.00 | 92 | 1009.0 |
| 20260830235705 | 60 | 100 | 0.0 | 0.0 | 0.00 | 0.02 | 0.00 | 92 | 1009.1 |
| 20260830235511 | 60 | 100 | 0.0 | 0.0 | 0.00 | 0.00 | 0.00 | 92 | 1008.1 |
| 20260830234706 | 59 | 198 | 0.0 | 0.0 | 0.00 | 0.02 | 0.00 | 91 | 1009.2 |
| 20260830234511 | 59 | 198 | 0.0 | 0.0 | 0.00 | 0.00 | 0.00 | 91 | 1008.2 |
| 20260830234205 | 59 | 198 | 0.0 | 0.0 | 0.00 | 0.03 | 0.00 | 91 | 1009.2 |
| 20260830233511 | 59 | 198 | 0.0 | 0.0 | 0.00 | 0.00 | 0.00 | 91 | 1008.3 |
| 20260830233205 | 59 | 198 | 0.0 | 0.0 | 0.00 | 0.04 | 0.00 | 91 | 1009.4 |
| 20260830232705 | 60 | 198 | 0.0 | 0.0 | 0.00 | 0.06 | 0.00 | 91 | 1009.4 |
| 20260830232511 | 60 | 198 | 0.0 | 0.0 | 0.00 | 0.00 | 0.00 | 91 | 1008.5 |
| 20260830232205 | 60 | 198 | 0.0 | 0.0 | 0.00 | 0.06 | 0.00 | 91 | 1009.4 |
| 20260830231705 | 60 | 198 | 0.0 | 0.0 | 0.00 | 0.06 | 0.00 | 91 | 1009.5 |
| 20260830231511 | 60 | 198 | 0.0 | 0.0 | 0.00 | 0.00 | 0.00 | 91 | 1008.5 |
| 20260830230511 | 60 | 198 | 0.0 | 0.0 | 0.00 | 0.00 | 0.00 | 91 | 1008.7 |
| 20260830230205 | 60 | 198 | 0.0 | 0.0 | 0.00 | 0.06 | 0.00 | 91 | 1009.6 |
| 20260830225705 | 60 | 198 | 0.0 | 0.0 | 0.00 | 0.06 | 0.00 | 91 | 1009.7 |
| 20260830225511 | 60 | 198 | 0.0 | 0.0 | 0.00 | 0.00 | 0.00 | 91 | 1008.7 |
| 20260830225205 | 60 | 198 | 0.0 | 0.0 | 0.00 | 0.06 | 0.00 | 90 | 1009.8 |
| 20260830224705 | 61 | 198 | 0.0 | 0.0 | 0.00 | 0.06 | 0.00 | 91 | 1009.9 |
| 20260830224511 | 61 | 198 | 0.0 | 0.0 | 0.00 | 0.00 | 0.00 | 91 | 1008.9 |
| 20260830223512 | 61 | 198 | 0.0 | 0.0 | 0.00 | 0.00 | 0.00 | 91 | 1009.1 |
| 20260830223206 | 61 | 198 | 0.0 | 0.0 | 0.00 | 0.06 | 0.00 | 91 | 1010.1 |
| 20260830222706 | 61 | 198 | 0.0 | 0.0 | 0.00 | 0.06 | 0.00 | 91 | 1010.1 |
| 20260830222511 | 61 | 198 | 0.0 | 0.0 | 0.00 | 0.00 | 0.00 | 91 | 1009.1 |
| 20260830222205 | 61 | 198 | 0.0 | 0.0 | 0.00 | 0.06 | 0.00 | 91 | 1010.1 |
| 20260830221705 | 62 | 198 | 0.0 | 0.0 | 0.00 | 0.06 | 0.00 | 91 | 1010.1 |
| 20260830221205 | 62 | 198 | 0.0 | 0.0 | 0.00 | 0.06 | 0.00 | 91 | 1010.2 |
| 20260830220205 | 62 | 198 | 0.0 | 0.0 | 0.00 | 0.06 | 0.00 | 91 | 1010.1 |
| 20260830215706 | 62 | 198 | 0.0 | 0.0 | 0.00 | 0.06 | 0.06 | 91 | 1010.1 |
| 20260830215511 | 62 | 198 | 0.0 | 0.0 | 0.00 | 0.06 | 0.06 | 91 | 1009.2 |
| 20260830215206 | 62 | 198 | 0.0 | 0.0 | 0.00 | 0.06 | 0.06 | 91 | 1010.2 |
| 20260830214511 | 62 | 198 | 0.0 | 0.0 | 0.00 | 0.06 | 0.06 | 91 | 1009.3 |
| 20260830214206 | 62 | 198 | 0.0 | 0.0 | 0.00 | 0.06 | 0.06 | 91 | 1010.3 |
| 20260830213706 | 62 | 198 | 0.0 | 0.0 | 0.00 | 0.06 | 0.06 | 90 | 1010.3 |
| 20260830213511 | 62 | 198 | 0.0 | 0.0 | 0.00 | 0.06 | 0.06 | 90 | 1009.4 |
| 20260830213205 | 62 | 198 | 0.0 | 0.0 | 0.00 | 0.06 | 0.06 | 90 | 1010.3 |
| 20260830212705 | 62 | 198 | 0.0 | 0.0 | 0.00 | 0.06 | 0.06 | 90 | 1010.3 |
| 20260830212511 | 62 | 198 | 0.0 | 0.0 | 0.00 | 0.06 | 0.06 | 90 | 1009.3 |
| 20260830211705 | 62 | 198 | 0.0 | 0.0 | 0.00 | 0.06 | 0.06 | 89 | 1010.2 |
| 20260830211511 | 62 | 198 | 0.0 | 0.0 | 0.00 | 0.06 | 0.06 | 89 | 1009.3 |
| 20260830211205 | 63 | 198 | 0.0 | 0.0 | 0.00 | 0.06 | 0.06 | 90 | 1010.2 |
| 20260830210705 | 63 | 198 | 0.0 | 0.0 | 0.00 | 0.06 | 0.06 | 90 | 1010.1 |
| 20260830210511 | 63 | 198 | 0.0 | 0.0 | 0.00 | 0.06 | 0.06 | 89 | 1009.1 |
| 20260830210205 | 63 | 198 | 0.0 | 0.0 | 0.00 | 0.07 | 0.06 | 90 | 1010.2 |
| 20260830205705 | 63 | 198 | 0.0 | 0.0 | 0.00 | 0.08 | 0.06 | 89 | 1010.2 |
| 20260830205511 | 63 | 198 | 0.0 | 0.0 | 0.00 | 0.06 | 0.06 | 89 | 1009.2 |
| 20260830205205 | 63 | 198 | 0.0 | 0.0 | 0.00 | 0.08 | 0.06 | 89 | 1010.3 |
| 20260830204705 | 63 | 198 | 0.0 | 0.0 | 0.00 | 0.09 | 0.06 | 89 | 1010.3 |
| 20260830204205 | 63 | 198 | 0.0 | 0.0 | 0.00 | 0.09 | 0.06 | 89 | 1010.3 |
| 20260830203705 | 63 | 198 | 0.0 | 0.0 | 0.00 | 0.09 | 0.06 | 88 | 1010.4 |
| 20260830203511 | 63 | 198 | 0.0 | 0.0 | 0.00 | 0.06 | 0.06 | 88 | 1009.5 |
| 20260830203205 | 63 | 198 | 0.0 | 0.0 | 0.00 | 0.10 | 0.06 | 88 | 1010.4 |
| 20260830202705 | 63 | 198 | 0.0 | 0.0 | 0.00 | 0.10 | 0.06 | 88 | 1010.5 |
| 20260830202205 | 63 | 198 | 0.0 | 0.0 | 0.00 | 0.10 | 0.06 | 88 | 1010.5 |
| 20260830201511 | 63 | 198 | 0.0 | 0.0 | 0.00 | 0.06 | 0.06 | 87 | 1009.7 |
| 20260830201205 | 63 | 198 | 0.0 | 0.0 | 0.00 | 0.11 | 0.06 | 87 | 1010.7 |
| 20260830200705 | 64 | 198 | 0.0 | 0.0 | 0.00 | 0.11 | 0.06 | 87 | 1010.7 |
| 20260830200511 | 64 | 198 | 0.0 | 0.0 | 0.00 | 0.06 | 0.06 | 87 | 1009.7 |
| 20260830195705 | 64 | 198 | 0.0 | 0.0 | 0.00 | 0.11 | 0.06 | 86 | 1010.8 |
| 20260830195510 | 64 | 198 | 0.0 | 0.0 | 0.00 | 0.06 | 0.06 | 86 | 1009.9 |
| 20260830195205 | 64 | 198 | 0.0 | 0.0 | 0.00 | 0.11 | 0.06 | 86 | 1010.7 |
| 20260830194705 | 64 | 198 | 0.0 | 0.0 | 0.00 | 0.11 | 0.06 | 85 | 1010.7 |
| 20260830194205 | 65 | 198 | 0.0 | 0.0 | 0.00 | 0.11 | 0.06 | 85 | 1010.7 |
| 20260830193705 | 65 | 198 | 0.0 | 0.0 | 0.00 | 0.11 | 0.06 | 84 | 1010.7 |
| 20260830193511 | 65 | 198 | 0.0 | 0.0 | 0.00 | 0.06 | 0.06 | 84 | 1009.8 |
| 20260830193205 | 65 | 198 | 0.0 | 0.0 | 0.00 | 0.11 | 0.06 | 84 | 1010.7 |
| 20260830192705 | 66 | 198 | 0.0 | 0.0 | 0.00 | 0.11 | 0.06 | 84 | 1010.7 |
| 20260830192511 | 66 | 198 | 0.0 | 0.0 | 0.00 | 0.06 | 0.06 | 84 | 1009.7 |
| 20260830192205 | 66 | 198 | 0.0 | 0.0 | 0.00 | 0.11 | 0.06 | 84 | 1010.7 |
| 20260830191510 | 66 | 198 | 0.0 | 0.0 | 0.00 | 0.06 | 0.06 | 84 | 1009.9 |
| 20260830191205 | 66 | 198 | 0.0 | 0.0 | 0.00 | 0.11 | 0.06 | 83 | 1010.9 |
| 20260830190705 | 67 | 198 | 0.0 | 0.0 | 0.00 | 0.11 | 0.06 | 83 | 1010.8 |
| 20260830185705 | 67 | 205 | 0.0 | 0.0 | 0.00 | 0.11 | 0.06 | 83 | 1010.8 |
| 20260830185511 | 67 | 205 | 0.0 | 0.0 | 0.00 | 0.06 | 0.06 | 83 | 1009.9 |
| 20260830185205 | 67 | 197 | 0.0 | 0.0 | 0.00 | 0.11 | 0.06 | 83 | 1010.8 |
| 20260830184705 | 67 | 210 | 0.0 | 0.0 | 0.00 | 0.11 | 0.06 | 83 | 1010.7 |
| 20260830184510 | 67 | 210 | 0.0 | 0.0 | 0.00 | 0.06 | 0.06 | 83 | 1009.8 |
| 20260830184205 | 67 | 210 | 0.0 | 0.0 | 0.00 | 0.11 | 0.06 | 82 | 1010.7 |
| 20260830183705 | 67 | 238 | 0.0 | 0.0 | 0.00 | 0.11 | 0.06 | 82 | 1010.7 |
| 20260830183510 | 67 | 227 | 0.0 | 0.0 | 0.00 | 0.06 | 0.06 | 82 | 1009.7 |
| 20260830182510 | 67 | 219 | 0.0 | 0.0 | 0.00 | 0.06 | 0.06 | 82 | 1009.7 |
| 20260830182205 | 67 | 219 | 0.0 | 0.0 | 0.00 | 0.11 | 0.06 | 82 | 1010.7 |
| 20260830181705 | 67 | 223 | 0.0 | 0.0 | 0.00 | 0.11 | 0.06 | 82 | 1010.6 |
| 20260830181510 | 67 | 223 | 0.0 | 0.0 | 0.00 | 0.06 | 0.06 | 82 | 1009.7 |
| 20260830181204 | 67 | 226 | 0.0 | 0.0 | 0.00 | 0.11 | 0.06 | 82 | 1010.6 |
| 20260830180705 | 67 | 230 | 0.0 | 0.0 | 0.00 | 0.11 | 0.06 | 81 | 1010.6 |
| 20260830180510 | 67 | 239 | 0.0 | 0.0 | 0.00 | 0.06 | 0.06 | 81 | 1009.7 |
| 20260830180204 | 67 | 240 | 0.0 | 0.0 | 0.00 | 0.11 | 0.06 | 81 | 1010.6 |
| 20260830175705 | 67 | 219 | 0.0 | 0.0 | 0.00 | 0.11 | 0.06 | 81 | 1010.5 |
| 20260830175510 | 67 | 223 | 0.0 | 0.0 | 0.00 | 0.06 | 0.06 | 81 | 1009.6 |
| 20260830174510 | 67 | 229 | 0.0 | 0.0 | 0.00 | 0.06 | 0.06 | 81 | 1009.6 |
| 20260830174205 | 67 | 209 | 0.0 | 0.0 | 0.00 | 0.11 | 0.06 | 81 | 1010.5 |
| 20260830173704 | 67 | 212 | 0.0 | 0.0 | 0.00 | 0.11 | 0.06 | 81 | 1010.4 |
| 20260830173510 | 67 | 187 | 0.0 | 0.0 | 0.00 | 0.06 | 0.06 | 80 | 1009.5 |
| 20260830172705 | 67 | 212 | 0.0 | 0.0 | 0.00 | 0.11 | 0.06 | 80 | 1010.4 |
| 20260830172510 | 67 | 225 | 0.0 | 1.0 | 0.00 | 0.06 | 0.06 | 80 | 1009.5 |
| 20260830171704 | 67 | 213 | 0.0 | 0.0 | 0.00 | 0.11 | 0.06 | 80 | 1010.3 |
| 20260830171510 | 67 | 239 | 0.0 | 9.0 | 0.00 | 0.06 | 0.06 | 80 | 1009.4 |
| 20260830170705 | 67 | 247 | 0.0 | 8.0 | 0.00 | 0.11 | 0.06 | 81 | 1010.3 |
| 20260830170510 | 67 | 238 | 0.0 | 8.0 | 0.00 | 0.06 | 0.06 | 81 | 1009.5 |
| 20260830165705 | 67 | 234 | 2.0 | 10.0 | 0.00 | 0.11 | 0.06 | 82 | 1010.4 |
| 20260830165511 | 67 | 260 | 0.0 | 2.0 | 0.00 | 0.06 | 0.06 | 82 | 1009.6 |
| 20260830165205 | 67 | 252 | 0.0 | 6.0 | 0.00 | 0.11 | 0.06 | 82 | 1010.5 |
| 20260830164704 | 67 | 242 | 0.0 | 2.0 | 0.00 | 0.11 | 0.06 | 82 | 1010.5 |
| 20260830164511 | 67 | 246 | 0.0 | 2.0 | 0.00 | 0.06 | 0.06 | 82 | 1009.6 |
| 20260830164205 | 67 | 235 | 0.0 | 2.0 | 0.00 | 0.11 | 0.06 | 83 | 1010.4 |
| 20260830163705 | 67 | 258 | 0.0 | 2.0 | 0.00 | 0.11 | 0.06 | 84 | 1010.4 |
| 20260830163510 | 67 | 276 | 0.0 | 3.0 | 0.00 | 0.06 | 0.06 | 84 | 1009.5 |
| 20260830162705 | 67 | 241 | 1.0 | 3.0 | 0.00 | 0.11 | 0.06 | 85 | 1010.4 |
| 20260830162510 | 67 | 236 | 0.0 | 4.0 | 0.00 | 0.06 | 0.06 | 85 | 1009.5 |
| 20260830162205 | 67 | 238 | 1.0 | 7.0 | 0.00 | 0.11 | 0.06 | 85 | 1010.3 |
| 20260830161705 | 67 | 270 | 0.0 | 8.0 | 0.00 | 0.11 | 0.06 | 85 | 1010.3 |
| 20260830161510 | 67 | 239 | 0.0 | 8.0 | 0.00 | 0.06 | 0.06 | 85 | 1009.4 |
| 20260830161205 | 67 | 271 | 0.0 | 6.0 | 0.00 | 0.11 | 0.06 | 85 | 1010.3 |
| 20260830160705 | 67 | 282 | 1.0 | 8.0 | 0.00 | 0.11 | 0.06 | 84 | 1010.3 |
| 20260830160510 | 67 | 258 | 1.0 | 8.0 | 0.00 | 0.06 | 0.06 | 84 | 1009.3 |
| 20260830155704 | 67 | 263 | 0.0 | 1.0 | 0.00 | 0.11 | 0.06 | 84 | 1010.2 |
| 20260830154704 | 67 | 251 | 1.0 | 12.0 | 0.00 | 0.11 | 0.06 | 83 | 1010.1 |
| 20260830154511 | 67 | 254 | 1.0 | 12.0 | 0.00 | 0.06 | 0.06 | 83 | 1009.1 |
| 20260830154205 | 67 | 240 | 1.0 | 5.0 | 0.00 | 0.11 | 0.06 | 83 | 1010.0 |
| 20260830153705 | 68 | 231 | 1.0 | 12.0 | 0.00 | 0.11 | 0.06 | 82 | 1010.0 |
| 20260830153510 | 68 | 231 | 3.0 | 12.0 | 0.01 | 0.06 | 0.06 | 82 | 1009.0 |
| 20260830153204 | 68 | 251 | 2.0 | 14.0 | 0.01 | 0.11 | 0.06 | 81 | 1009.9 |
| 20260830152705 | 68 | 239 | 3.0 | 13.0 | 0.01 | 0.11 | 0.06 | 81 | 1009.9 |
| 20260830152511 | 68 | 230 | 3.0 | 11.0 | 0.01 | 0.06 | 0.06 | 81 | 1009.0 |
| 20260830152205 | 68 | 222 | 1.0 | 12.0 | 0.01 | 0.11 | 0.06 | 81 | 1009.8 |
| 20260830151704 | 68 | 232 | 4.0 | 12.0 | 0.01 | 0.11 | 0.06 | 81 | 1009.9 |
| 20260830151205 | 68 | 195 | 3.0 | 12.0 | 0.01 | 0.11 | 0.06 | 81 | 1009.9 |
| 20260830150704 | 68 | 214 | 4.0 | 15.0 | 0.01 | 0.11 | 0.06 | 80 | 1009.9 |
| 20260830150510 | 68 | 219 | 3.0 | 12.0 | 0.01 | 0.06 | 0.06 | 80 | 1008.9 |
| 20260830150205 | 68 | 221 | 1.0 | 12.0 | 0.01 | 0.11 | 0.06 | 81 | 1009.8 |
| 20260830145706 | 68 | 236 | 0.0 | 12.0 | 0.01 | 0.11 | 0.06 | 81 | 1009.8 |
| 20260830144705 | 68 | 226 | 0.0 | 1.0 | 0.01 | 0.11 | 0.06 | 83 | 1009.7 |
| 20260830144510 | 68 | 225 | 0.0 | 3.0 | 0.01 | 0.06 | 0.06 | 83 | 1008.9 |
| 20260830144204 | 68 | 229 | 1.0 | 12.0 | 0.01 | 0.11 | 0.06 | 83 | 1009.8 |
| 20260830143704 | 68 | 239 | 0.0 | 8.0 | 0.01 | 0.11 | 0.06 | 83 | 1009.7 |
| 20260830143510 | 68 | 212 | 2.0 | 9.0 | 0.00 | 0.06 | 0.06 | 82 | 1008.8 |
| 20260830143204 | 68 | 229 | 4.0 | 18.0 | 0.00 | 0.10 | 0.06 | 82 | 1009.8 |
| 20260830142705 | 69 | 234 | 1.0 | 9.0 | 0.00 | 0.10 | 0.06 | 81 | 1009.8 |
| 20260830142205 | 69 | 232 | 2.0 | 9.0 | 0.00 | 0.10 | 0.06 | 81 | 1009.7 |
| 20260830141510 | 69 | 229 | 1.0 | 9.0 | 0.00 | 0.06 | 0.06 | 81 | 1008.7 |
| 20260830141204 | 69 | 241 | 0.0 | 7.0 | 0.00 | 0.10 | 0.06 | 81 | 1009.6 |
| 20260830140705 | 68 | 215 | 2.0 | 9.0 | 0.00 | 0.10 | 0.06 | 82 | 1009.5 |
| 20260830140510 | 68 | 183 | 1.0 | 8.0 | 0.00 | 0.06 | 0.06 | 82 | 1008.6 |
| 20260830140205 | 68 | 203 | 0.0 | 1.0 | 0.00 | 0.10 | 0.06 | 83 | 1009.5 |
| 20260830135705 | 68 | 217 | 1.0 | 7.0 | 0.00 | 0.10 | 0.06 | 84 | 1009.5 |
| 20260830135510 | 67 | 207 | 1.0 | 9.0 | 0.00 | 0.06 | 0.06 | 84 | 1008.7 |
| 20260830135204 | 67 | 211 | 1.0 | 9.0 | 0.00 | 0.10 | 0.06 | 84 | 1009.6 |
| 20260830134704 | 67 | 212 | 0.0 | 6.0 | 0.00 | 0.10 | 0.06 | 86 | 1009.5 |
| 20260830134510 | 67 | 204 | 0.0 | 7.0 | 0.00 | 0.06 | 0.06 | 86 | 1008.6 |
| 20260830134205 | 67 | 208 | 0.0 | 7.0 | 0.00 | 0.10 | 0.06 | 86 | 1009.5 |
| 20260830133704 | 67 | 201 | 0.0 | 0.0 | 0.00 | 0.10 | 0.06 | 86 | 1009.5 |
| 20260830133510 | 67 | 226 | 0.0 | 3.0 | 0.00 | 0.06 | 0.06 | 86 | 1008.6 |
| 20260830133205 | 67 | 214 | 0.0 | 3.0 | 0.00 | 0.10 | 0.06 | 86 | 1009.5 |
| 20260830132704 | 67 | 223 | 1.0 | 7.0 | 0.00 | 0.10 | 0.06 | 85 | 1009.5 |
| 20260830132510 | 67 | 253 | 0.0 | 4.0 | 0.00 | 0.06 | 0.06 | 86 | 1008.6 |
| 20260830132205 | 67 | 221 | 1.0 | 9.0 | 0.00 | 0.10 | 0.06 | 86 | 1009.5 |
| 20260830131705 | 67 | 231 | 2.0 | 10.0 | 0.00 | 0.10 | 0.06 | 86 | 1009.5 |
| 20260830131510 | 67 | 221 | 1.0 | 10.0 | 0.00 | 0.06 | 0.06 | 86 | 1008.6 |
| 20260830131204 | 67 | 227 | 0.0 | 3.0 | 0.00 | 0.10 | 0.06 | 87 | 1009.4 |
| 20260830130705 | 67 | 228 | 0.0 | 3.0 | 0.00 | 0.10 | 0.06 | 88 | 1009.3 |
| 20260830130510 | 67 | 166 | 0.0 | 3.0 | 0.00 | 0.06 | 0.06 | 88 | 1008.4 |
| 20260830130204 | 67 | 216 | 0.0 | 1.0 | 0.00 | 0.10 | 0.06 | 89 | 1009.3 |
| 20260830125704 | 66 | 223 | 0.0 | 1.0 | 0.00 | 0.10 | 0.06 | 88 | 1009.3 |
| 20260830125510 | 67 | 223 | 0.0 | 1.0 | 0.00 | 0.06 | 0.06 | 89 | 1008.4 |
| 20260830125204 | 66 | 224 | 0.0 | 3.0 | 0.01 | 0.10 | 0.06 | 88 | 1009.3 |
| 20260830124510 | 66 | 214 | 0.0 | 4.0 | 0.01 | 0.06 | 0.06 | 88 | 1008.5 |
| 20260830124204 | 66 | 227 | 0.0 | 3.0 | 0.01 | 0.10 | 0.06 | 88 | 1009.3 |
| 20260830123705 | 66 | 230 | 1.0 | 8.0 | 0.01 | 0.10 | 0.06 | 88 | 1009.3 |
| 20260830123205 | 66 | 219 | 1.0 | 6.0 | 0.01 | 0.10 | 0.06 | 89 | 1009.3 |
| 20260830122704 | 66 | 227 | 0.0 | 8.0 | 0.01 | 0.10 | 0.06 | 89 | 1009.2 |
| 20260830122510 | 66 | 229 | 0.0 | 8.0 | 0.01 | 0.06 | 0.06 | 89 | 1008.3 |
| 20260830122204 | 66 | 210 | 1.0 | 6.0 | 0.01 | 0.10 | 0.06 | 90 | 1009.2 |
| 20260830121510 | 66 | 202 | 0.0 | 6.0 | 0.01 | 0.06 | 0.06 | 89 | 1008.3 |
| 20260830120705 | 66 | 206 | 1.0 | 5.0 | 0.01 | 0.10 | 0.06 | 90 | 1009.1 |
| 20260830120510 | 66 | 198 | 1.0 | 9.0 | 0.01 | 0.06 | 0.06 | 90 | 1008.2 |
| 20260830120204 | 66 | 204 | 1.0 | 9.0 | 0.01 | 0.10 | 0.06 | 90 | 1009.1 |
| 20260830115704 | 66 | 221 | 1.0 | 7.0 | 0.01 | 0.10 | 0.06 | 89 | 1009.1 |
| 20260830115510 | 65 | 212 | 1.0 | 8.0 | 0.01 | 0.06 | 0.06 | 89 | 1008.2 |
| 20260830115204 | 66 | 221 | 0.0 | 8.0 | 0.00 | 0.09 | 0.05 | 89 | 1009.1 |
| 20260830113513 | 66 | 200 | 1.0 | 8.0 | 0.00 | 0.05 | 0.05 | 87 | 1008.0 |
| 20260830113205 | 67 | 207 | 1.0 | 10.0 | 0.00 | 0.09 | 0.05 | 86 | 1009.0 |